Theta_e
357 356 356 355 355 355 355 355 355 353 352 349 343 339 338 338 337 337 340 345 348 349 349 348 347 347 347 347 347 346 343 339 337 336 339 343 342 338 338 340 341 342 343 343 344 345 346 347 348 348 349 348 347 347 349 349 346 346 345 344 345 345 343 343 342 341 339 338 337 336 337 338 339 340 339 340 341 342 342 342 341 341 341 341 341
357 357 357 356 355 355 355 355 354 353 352 348 343 338 338 338 336 337 338 341 344 346 346 344 342 343 343 344 346 346 340 333 334 334 337 342 339 336 339 341 341 343 343 345 347 347 348 348 348 348 348 348 348 348 348 347 346 345 345 346 346 344 344 343 341 340 339 337 337 337 337 337 338 339 339 339 341 342 341 341 341 340 340 340 340
358 358 357 356 356 355 355 355 353 352 351 347 344 339 338 338 337 337 337 337 340 342 341 339 338 337 339 340 341 347 344 335 335 336 336 340 338 337 339 340 342 343 344 346 348 349 349 348 347 347 347 348 348 349 348 347 346 345 346 347 346 344 344 343 341 340 339 337 336 337 339 337 336 337 338 338 340 341 340 341 340 340 339 337 338
358 358 357 357 356 356 356 354 353 353 352 349 345 341 338 338 337 337 337 337 338 339 338 337 337 336 336 337 336 343 347 339 333 334 335 337 338 339 340 341 342 342 344 346 347 349 348 348 347 347 347 348 348 349 348 347 347 347 348 347 345 344 343 343 342 338 337 338 338 336 336 337 338 337 336 337 339 340 340 340 340 340 337 334 337
359 359 358 357 357 357 356 354 352 352 353 351 347 343 339 338 339 338 337 337 337 338 338 338 340 338 337 338 336 337 342 339 333 333 335 337 339 340 340 341 341 342 343 345 346 347 347 348 347 346 347 347 348 349 349 348 347 348 347 346 345 343 342 343 343 339 335 336 338 338 335 336 337 337 336 337 337 338 339 340 340 339 336 335 337
360 359 358 358 358 358 358 355 352 351 350 349 347 343 340 339 339 338 338 338 338 337 337 338 339 338 336 337 337 335 337 337 335 334 335 337 340 341 341 341 341 341 341 342 343 344 346 348 347 346 348 349 349 349 349 348 348 349 347 344 343 343 343 342 342 340 333 329 334 339 339 340 339 337 338 339 339 338 339 340 340 339 338 337 337
360 359 358 359 358 358 358 355 353 351 349 347 347 345 341 338 338 338 338 338 338 339 339 338 338 337 335 335 335 336 335 336 336 336 336 337 339 341 341 341 341 341 340 340 342 343 345 347 346 346 348 350 350 349 349 349 349 350 347 344 343 342 343 342 342 340 332 327 333 337 337 339 341 340 340 340 340 339 339 339 339 339 338 337 337
359 360 359 359 358 358 358 353 349 351 350 346 346 345 341 339 337 337 338 337 338 340 339 337 337 335 335 335 336 336 337 337 337 337 338 338 338 339 340 341 340 340 340 340 340 342 344 345 345 346 348 350 350 349 350 350 350 350 347 344 344 344 342 340 342 341 337 335 336 337 336 336 337 340 341 340 340 339 339 339 338 338 337 336 337
358 359 358 359 359 358 357 352 348 350 351 345 342 343 340 339 338 338 339 338 337 337 337 336 336 335 334 335 336 337 337 338 338 338 338 339 339 339 340 341 340 340 340 340 341 342 343 343 345 346 347 349 350 350 350 350 350 349 347 345 344 345 341 335 335 336 338 341 339 337 338 337 336 339 340 340 340 339 339 338 338 337 336 335 335
357 358 358 358 359 358 357 355 351 349 349 345 343 344 343 339 339 341 339 337 336 336 336 336 335 335 335 335 336 337 337 338 339 339 338 338 338 339 341 341 340 340 341 340 340 343 343 343 343 345 347 349 350 350 349 350 350 347 348 346 345 346 340 329 327 328 332 341 342 338 338 338 339 340 340 339 340 340 338 337 337 337 337 336 336
356 357 358 358 358 359 358 358 356 351 350 348 345 343 342 339 338 340 338 337 338 336 336 337 335 335 336 336 336 337 337 337 338 338 337 338 338 339 340 340 340 340 340 340 339 341 343 342 342 343 345 348 348 348 347 348 348 347 346 345 346 347 340 327 324 323 325 333 339 339 338 339 340 341 341 340 339 339 338 336 335 335 336 336 337
357 356 357 358 358 359 358 359 358 356 353 350 346 342 341 339 338 338 338 338 338 338 339 339 337 337 336 337 337 337 337 337 337 338 337 337 337 338 339 339 340 340 340 340 339 340 341 341 342 341 343 346 346 346 345 345 346 346 346 345 347 348 341 328 322 320 321 325 334 339 339 338 340 339 340 340 340 340 339 338 336 336 336 335 336
357 357 357 358 358 359 359 359 359 357 353 350 347 345 341 339 339 338 339 338 338 340 341 339 338 338 338 338 338 337 338 338 337 337 337 337 337 338 338 338 338 338 339 339 339 340 340 340 341 341 342 344 344 344 343 342 344 346 346 345 348 348 340 330 323 319 322 324 331 339 339 338 340 339 338 338 339 339 339 338 337 337 337 336 337
355 357 357 357 359 359 358 358 357 354 351 348 347 345 342 339 338 339 339 339 340 341 341 340 340 339 338 339 339 338 338 338 338 338 337 338 338 338 339 338 338 337 337 338 338 339 339 339 339 340 342 343 342 342 341 341 344 346 347 346 348 349 343 333 327 321 321 323 327 335 338 339 340 339 338 337 338 339 338 338 339 338 336 336 338
354 356 357 357 358 358 358 358 355 350 348 348 347 345 343 339 338 338 338 339 340 341 341 342 342 340 340 340 339 338 338 338 338 339 338 338 338 338 339 339 339 337 337 337 337 338 338 338 338 338 340 341 340 340 339 340 344 346 348 347 348 351 346 337 330 325 321 320 321 326 331 337 339 339 339 338 337 338 338 337 339 339 338 336 337
354 355 356 357 358 358 358 357 355 350 347 346 346 343 341 339 338 337 337 338 338 339 341 341 341 340 340 341 339 338 339 338 339 339 339 339 338 338 338 338 338 338 337 338 337 338 338 338 337 337 338 339 338 339 337 338 341 344 346 346 347 350 349 340 333 329 323 321 321 320 322 332 338 338 337 339 339 338 339 339 338 339 339 338 338
352 355 356 357 358 358 358 357 356 353 347 345 344 340 338 337 337 337 337 337 338 338 338 339 340 340 340 340 339 339 340 339 340 341 341 341 340 339 339 338 338 337 337 337 337 337 338 337 337 337 337 337 336 337 336 336 339 341 344 346 347 350 349 342 336 332 327 325 326 323 319 324 330 329 330 334 336 334 334 336 337 338 338 339 339
351 354 356 356 358 358 357 356 355 351 346 343 342 340 338 336 335 335 336 336 337 337 338 338 338 339 340 341 340 341 343 342 342 345 345 344 343 341 341 340 339 338 338 337 337 337 338 337 337 337 336 337 336 336 335 336 338 340 342 344 345 348 350 345 339 334 329 327 328 327 323 322 324 322 323 327 328 325 327 331 334 337 338 338 339
351 353 355 357 357 357 356 354 353 350 345 341 342 341 340 337 335 334 334 334 335 336 337 338 338 338 339 340 341 342 344 343 344 346 346 346 345 344 344 342 341 341 339 337 337 336 337 337 337 337 337 336 336 336 335 335 337 339 342 342 343 346 348 347 341 336 332 327 325 325 324 323 323 322 323 326 325 321 322 327 330 334 335 336 338
350 352 354 356 356 355 355 354 354 354 350 348 347 345 343 340 337 335 334 334 333 334 335 336 337 337 337 339 341 342 343 343 344 345 346 346 346 346 345 345 344 344 342 339 337 336 336 336 335 336 336 336 336 335 335 335 336 338 341 342 343 342 342 345 343 338 334 329 323 321 322 321 322 321 321 324 324 321 321 324 327 330 331 332 335
349 351 353 355 355 355 355 355 355 356 356 355 353 350 348 345 341 337 335 334 333 333 334 335 335 336 337 338 339 340 341 342 342 343 345 345 345 345 345 345 345 346 345 343 340 337 336 335 335 335 336 336 336 335 335 336 337 338 340 341 341 339 338 341 342 339 336 332 325 321 321 320 320 320 319 320 322 321 320 321 324 327 329 329 330
348 350 351 353 355 354 354 355 355 355 356 356 354 353 352 350 346 343 339 336 334 332 332 333 333 334 335 336 337 338 339 340 341 342 343 344 344 344 344 345 345 345 346 345 343 340 336 335 335 335 335 336 335 335 335 336 337 338 339 340 340 339 337 339 340 338 337 335 329 323 320 320 320 320 320 320 322 323 321 321 321 323 327 330 328
348 348 349 351 353 353 354 354 355 355 355 355 355 354 352 350 349 348 345 340 338 335 333 332 332 332 332 333 335 336 337 338 339 340 341 342 342 343 343 344 345 345 345 346 345 343 339 336 335 335 335 335 335 335 335 336 337 338 339 339 339 339 338 337 338 337 336 336 333 327 322 321 320 320 321 321 323 324 322 322 322 322 324 329 331
347 345 346 346 349 352 352 353 354 354 353 355 355 354 352 350 350 348 345 343 341 340 338 336 334 333 333 333 334 335 335 337 338 339 339 340 340 341 341 341 343 344 345 345 345 345 343 340 337 335 335 334 334 335 334 335 337 338 339 339 339 340 339 338 336 336 335 336 335 333 330 327 324 322 321 322 322 322 322 322 322 323 321 324 333
346 345 345 344 346 349 350 351 353 353 353 353 353 355 354 352 350 348 346 345 344 343 343 340 339 338 337 337 337 337 338 338 338 338 339 339 339 340 340 340 341 343 344 345 345 345 346 344 341 339 336 334 333 333 333 334 336 338 339 339 339 340 340 340 337 336 335 335 335 335 335 335 333 329 326 324 323 322 322 323 322 323 321 320 328
347 346 345 344 344 345 345 346 348 350 352 350 349 353 354 353 352 350 350 349 347 346 345 343 341 341 340 340 340 340 340 340 340 340 340 340 341 341 341 341 341 342 344 345 345 346 346 346 345 343 341 337 334 333 333 333 335 337 338 339 340 340 340 341 340 338 336 334 335 335 336 337 337 336 334 331 328 326 324 325 324 322 323 322 324
343 342 343 342 341 340 339 340 342 347 351 350 347 349 352 353 353 351 352 352 349 347 346 345 343 343 342 341 341 341 341 341 341 342 342 342 342 342 342 342 343 343 343 344 345 346 346 346 346 346 345 343 339 336 334 333 334 336 336 337 339 340 340 341 341 340 339 336 335 335 335 336 337 337 338 336 335 334 332 331 331 328 327 327 327
335 332 334 335 334 336 336 337 340 344 349 350 349 347 347 349 351 352 353 354 352 349 347 346 345 344 343 342 341 341 341 341 342 341 342 342 342 343 343 343 343 343 344 344 345 346 346 347 347 347 347 346 344 342 339 336 334 334 334 335 337 339 340 341 341 341 340 339 337 336 335 336 337 336 338 339 338 338 338 338 338 337 336 333 332
335 329 328 329 330 332 333 334 337 341 344 347 349 349 346 345 347 349 350 352 353 350 347 347 345 343 342 342 341 342 342 342 342 342 342 342 342 343 343 343 343 343 344 344 345 346 346 347 347 347 347 347 346 345 343 339 337 334 333 334 335 337 339 340 341 341 341 341 339 338 337 336 337 336 336 339 340 340 340 341 341 341 341 338 335
338 338 333 328 328 330 329 330 333 336 339 342 346 347 346 344 345 346 348 351 351 350 348 347 345 342 342 342 341 341 342 342 343 343 342 342 342 343 343 344 344 343 344 344 344 346 346 347 347 347 347 347 347 347 344 341 339 336 333 333 333 335 337 339 340 341 342 341 340 339 338 337 337 337 336 338 340 341 341 341 342 343 343 342 338
334 342 339 330 328 329 328 329 329 330 334 337 340 342 343 346 346 343 344 347 349 350 349 346 345 344 344 344 342 341 341 342 343 343 343 343 342 343 343 344 344 344 344 345 345 345 346 347 347 347 348 348 347 347 345 342 341 339 337 335 334 334 336 337 339 340 341 341 340 340 339 339 338 338 338 338 340 341 342 342 343 343 343 344 341
329 336 337 330 328 329 327 328 328 329 331 332 336 339 341 343 344 344 344 347 349 349 346 344 344 345 345 343 342 342 342 342 343 342 343 343 343 343 343 343 344 344 345 345 345 345 346 346 348 347 348 348 348 348 347 344 343 342 341 340 337 335 335 336 338 339 340 341 341 340 340 340 339 338 339 339 340 341 342 343 343 344 344 345 344
329 334 336 330 328 329 327 327 327 328 330 331 333 337 338 339 342 346 348 348 347 346 344 344 345 345 344 343 342 343 342 342 343 343 343 344 343 343 343 344 344 344 345 345 345 346 346 346 347 348 348 348 348 348 348 347 345 344 343 343 342 339 337 336 336 338 340 340 341 341 340 341 340 340 340 341 342 343 343 343 344 345 346 345 345
331 335 335 329 327 328 326 326 327 328 331 334 333 333 336 337 339 343 345 345 344 343 343 343 344 343 342 342 342 343 342 342 343 343 344 344 343 344 344 344 345 346 345 346 346 346 346 346 347 348 348 348 349 348 348 348 347 346 345 345 345 344 342 339 336 336 339 339 340 340 340 341 340 340 341 343 344 345 345 345 345 346 346 346 346
335 336 333 328 326 327 326 327 327 328 333 335 334 336 340 340 339 339 341 341 341 342 341 341 342 341 341 342 342 341 342 342 343 344 344 344 344 344 345 345 346 346 346 346 346 346 346 346 347 348 348 348 348 349 349 348 347 346 346 346 345 345 344 339 336 335 337 339 340 341 340 340 340 340 340 343 345 346 347 346 347 348 347 347 347
342 341 335 329 326 326 326 326 327 330 334 337 338 340 343 343 340 338 339 340 340 341 341 340 340 340 341 341 341 341 342 343 343 344 344 345 344 344 344 345 346 346 346 346 346 347 347 346 348 350 351 348 348 349 348 348 347 345 345 348 347 345 342 339 336 335 337 339 341 342 341 340 340 341 341 342 345 348 348 348 348 348 347 347 347
338 336 331 328 326 326 327 327 329 333 336 339 342 344 345 345 343 339 338 340 340 340 341 340 341 341 341 342 342 342 343 343 344 344 344 344 344 344 345 345 345 346 347 347 346 347 347 347 348 350 351 348 349 351 350 348 348 346 344 347 347 346 343 340 337 336 337 339 339 340 341 341 340 340 341 343 346 348 349 349 349 348 347 346 346
333 332 332 331 329 329 330 330 334 337 337 339 341 343 344 345 344 341 339 340 340 340 341 341 341 341 341 342 343 342 343 343 343 343 344 343 344 344 345 346 346 347 347 348 349 349 348 349 349 349 349 348 350 352 351 349 349 347 344 344 346 346 344 340 338 338 339 341 341 340 341 341 340 340 341 343 346 348 349 350 349 348 347 346 346
337 335 335 335 334 334 335 336 338 339 338 338 338 341 344 345 342 340 339 340 340 340 341 341 341 342 342 342 342 342 342 343 343 343 344 344 344 345 345 346 346 347 347 348 349 350 350 351 351 351 352 351 352 353 353 351 350 348 347 346 345 346 344 340 338 340 341 344 345 344 341 340 340 341 342 343 346 348 350 350 349 348 347 347 346
343 340 338 339 338 339 341 341 340 339 339 339 339 342 346 345 341 341 342 341 340 341 341 341 341 341 342 342 342 343 343 343 343 344 344 345 345 346 347 347 347 348 349 350 350 351 352 353 353 355 355 353 352 353 354 353 351 350 351 350 348 347 344 340 337 338 341 346 348 347 343 339 339 341 342 343 346 348 350 350 349 348 347 346 345
345 342 342 344 344 343 343 343 341 340 341 341 340 343 347 346 340 340 342 343 343 342 341 342 342 342 342 343 343 343 343 344 344 344 344 345 346 347 349 350 351 351 352 352 353 354 356 356 356 357 358 357 356 356 356 355 353 353 353 352 351 349 345 342 339 339 342 345 347 346 344 339 337 340 342 343 346 349 350 350 349 348 347 346 344
347 345 347 349 348 344 343 344 342 341 342 342 341 343 348 348 343 341 343 346 347 345 342 343 342 342 343 344 345 345 345 345 345 346 346 346 347 348 349 350 351 353 354 354 355 358 357 358 359 359 359 360 359 358 358 356 354 355 355 353 352 352 350 347 344 342 344 344 343 343 342 337 335 338 340 343 347 349 349 350 350 349 347 344 343
351 351 352 352 351 347 344 344 344 343 343 345 345 345 347 349 351 351 349 349 348 345 344 344 344 344 344 346 347 348 347 347 346 346 347 347 348 348 349 350 351 354 356 358 360 361 359 359 360 359 359 359 359 359 359 357 356 357 356 354 352 352 352 352 350 347 345 344 342 342 341 337 335 336 339 343 347 350 350 350 349 348 346 344 342
352 352 353 355 355 353 351 348 346 344 346 348 348 347 345 346 349 349 347 346 346 345 344 344 345 345 346 346 347 348 348 348 347 348 348 348 349 350 351 352 354 355 357 360 362 362 361 361 361 360 359 359 359 359 359 358 357 357 356 355 354 352 352 353 352 351 349 346 343 341 339 338 335 334 338 344 348 350 350 350 349 347 345 343 342
351 351 352 353 355 355 354 353 350 347 346 348 348 346 345 345 346 345 345 346 346 346 347 348 347 348 348 348 348 348 349 349 348 349 350 350 351 353 355 357 359 359 359 360 361 360 360 360 360 360 360 360 360 360 359 358 358 357 358 357 356 354 354 353 353 352 353 352 349 343 340 341 338 335 340 347 350 351 351 350 349 347 345 343 341
351 351 351 352 353 354 354 354 353 350 348 349 347 347 347 347 347 347 348 348 347 348 348 348 349 350 350 351 353 354 354 354 354 355 356 356 357 359 360 361 361 361 360 361 360 360 360 360 360 361 360 360 360 359 358 360 359 359 359 359 357 356 356 355 354 353 354 354 352 349 345 343 339 339 345 350 352 352 351 350 348 346 344 343 339
350 350 351 351 352 352 352 353 353 353 352 351 350 351 351 350 351 353 352 351 353 356 356 354 355 357 356 357 358 359 359 360 360 360 360 360 361 361 361 361 361 361 361 361 360 360 361 360 360 361 361 361 361 359 360 360 360 359 359 359 358 358 358 356 356 355 354 354 353 351 348 344 342 345 350 352 352 352 350 349 347 345 343 341 338
349 349 350 350 351 351 351 351 350 350 351 351 351 351 351 350 351 351 350 350 353 357 360 360 360 360 360 360 361 361 361 361 361 361 361 361 361 361 361 362 361 361 361 361 361 361 361 361 361 361 361 361 361 360 360 360 360 360 360 359 359 359 358 357 356 356 355 354 353 352 350 348 348 350 352 353 352 351 349 348 347 344 341 339 337
347 348 348 348 349 349 349 349 348 348 348 348 347 346 346 346 346 346 348 349 350 352 355 356 354 354 356 357 358 360 360 360 361 360 359 359 359 360 360 360 361 361 361 361 361 361 361 361 362 361 361 361 361 361 361 360 360 360 360 360 360 359 358 357 356 355 355 354 353 353 351 350 350 351 352 351 351 349 347 346 345 342 340 338 336
346 346 346 347 347 347 347 347 347 347 346 346 345 342 342 342 341 342 344 346 347 349 350 350 350 351 352 354 355 357 358 359 359 359 359 359 359 359 360 360 359 360 360 360 361 361 360 360 360 360 360 360 360 360 360 360 360 361 360 360 360 359 358 357 356 356 353 352 353 353 351 351 351 351 351 350 349 347 344 343 341 339 338 337 337
346 346 346 346 345 346 346 346 346 346 346 346 345 344 343 342 342 343 343 342 342 343 343 344 345 345 347 349 351 352 353 354 355 355 355 355 354 354 354 355 356 356 356 356 356 356 356 357 357 358 358 359 359 360 360 359 360 360 360 361 360 360 359 358 357 356 352 350 351 352 351 351 351 351 350 349 347 346 343 341 339 338 336 336 336
Wind_Speed
25 27 30 30 29 29 28 27 28 30 31 33 37 38 37 37 35 33 30 26 22 20 19 20 21 20 20 20 19 19 19 21 22 22 20 19 20 20 19 18 18 17 15 15 13 12 12 12 11 10 9 8 6 5 5 5 6 7 6 6 4 2 1 0 0 0 1 2 2 1 2 2 3 2 1 2 2 3 3 5 4 3 3 3 3
23 26 29 30 30 29 29 28 29 31 33 36 39 40 39 38 37 35 33 30 26 23 23 25 27 26 24 23 22 20 22 24 23 23 21 20 21 22 19 19 18 17 16 15 14 13 13 13 12 10 10 9 7 6 5 6 6 6 5 4 3 1 0 1 2 1 1 0 1 1 2 3 3 3 2 3 3 4 4 4 4 3 3 3 3
25 27 29 30 30 30 30 30 31 32 34 37 39 41 40 39 39 38 36 34 31 29 28 29 30 30 27 25 24 21 21 24 23 22 22 21 22 20 19 19 18 17 16 15 14 14 13 13 12 11 10 9 8 6 6 5 5 5 4 3 3 2 1 2 2 1 0 1 2 3 3 3 2 2 3 3 4 4 4 4 4 3 3 3 4
26 27 29 30 31 31 32 32 32 31 32 36 39 41 43 42 41 40 39 37 35 33 32 31 30 31 29 28 26 22 20 22 24 24 23 23 22 20 19 19 18 18 17 16 15 14 14 13 12 11 11 9 7 6 6 5 4 4 3 3 2 1 1 2 3 2 2 3 2 2 3 4 3 3 4 4 4 5 4 3 4 3 2 3 4
27 28 29 31 32 32 33 33 34 33 34 35 37 41 43 43 42 41 40 39 37 36 34 32 31 30 30 29 28 25 23 23 24 25 24 23 22 21 20 20 19 18 18 17 16 14 14 13 13 13 11 9 7 6 6 5 4 3 3 3 3 2 2 3 3 3 4 6 5 3 3 3 3 4 5 4 4 4 4 4 3 3 2 3 4
28 29 30 31 32 32 32 34 35 35 36 36 37 39 41 42 42 42 42 40 38 37 36 35 33 33 32 31 29 29 28 27 27 27 26 24 23 22 21 21 20 19 19 18 17 15 15 14 14 13 11 9 7 7 6 6 4 4 4 4 4 4 4 4 4 3 5 7 7 5 3 2 3 3 4 4 4 5 5 5 4 4 3 3 3
27 28 29 30 32 33 34 36 37 37 38 38 37 38 40 41 42 42 41 41 40 37 36 37 36 35 33 32 32 31 31 30 29 27 26 25 23 22 22 21 20 19 19 19 18 16 15 15 15 13 11 9 9 8 7 6 5 4 4 4 4 4 5 5 5 4 5 6 6 5 3 1 2 3 3 3 3 4 5 5 5 4 3 2 3
27 28 30 31 33 35 37 39 41 38 37 39 39 39 40 41 41 41 40 40 39 36 36 37 37 35 34 34 33 33 32 31 29 27 26 25 23 22 22 21 20 20 20 19 19 17 17 16 15 14 12 11 10 8 7 7 6 6 5 5 5 5 5 5 6 6 5 5 6 5 4 4 4 3 2 2 2 2 4 4 4 4 3 2 2
29 30 31 33 34 36 37 40 41 38 37 40 41 40 41 41 40 39 39 39 39 38 37 38 37 36 35 35 35 34 33 32 30 29 27 25 24 23 22 22 21 20 20 20 19 18 18 17 16 15 13 12 11 9 8 8 7 7 6 6 6 5 5 5 6 8 6 5 6 6 5 5 4 4 4 3 3 2 2 4 4 4 3 3 3
29 30 32 34 34 35 35 36 38 39 39 40 41 39 40 41 40 39 40 40 40 40 39 38 38 37 36 36 36 35 34 33 32 31 29 27 25 24 23 24 22 21 21 21 20 19 18 18 17 16 14 13 12 10 9 9 8 9 8 7 7 6 5 5 5 8 9 8 7 6 6 5 5 5 5 4 3 2 2 3 4 5 5 5 5
29 30 30 32 33 32 32 33 35 38 39 40 41 41 41 42 41 41 41 41 41 40 40 39 39 37 37 37 36 36 35 34 34 33 31 29 27 26 25 25 24 23 22 22 22 20 19 19 18 17 16 14 13 12 11 10 9 9 9 9 9 7 6 6 6 8 9 10 8 7 6 6 6 6 5 5 5 4 3 3 3 3 3 4 5
28 29 29 30 31 32 32 33 34 36 38 40 42 43 43 43 43 43 43 42 42 41 40 40 39 38 38 37 37 37 36 36 35 34 32 30 28 27 27 27 25 24 24 23 23 22 21 21 20 19 18 16 15 13 13 12 10 10 10 11 9 8 7 8 7 8 9 9 8 8 7 6 7 6 5 6 6 5 5 4 3 2 2 3 4
28 29 29 30 32 34 35 36 36 37 39 41 43 43 45 45 45 45 44 44 42 41 40 40 40 40 39 38 38 38 37 37 36 35 34 32 30 29 28 28 28 26 26 25 24 23 23 22 21 21 20 19 17 16 16 14 11 11 12 12 10 9 9 9 9 8 9 9 9 8 8 7 7 7 6 6 6 6 6 5 4 3 4 5 5
28 29 30 31 34 36 38 39 40 41 42 42 43 44 45 47 47 47 46 45 44 43 43 42 42 42 40 40 40 39 38 38 37 36 35 34 32 31 30 29 29 28 27 26 25 24 24 23 22 21 21 21 20 18 17 15 13 13 13 13 11 10 10 11 10 10 10 10 10 10 9 8 8 7 7 7 6 6 6 6 6 4 5 5 5
28 30 31 33 35 37 38 39 42 45 44 43 44 45 46 48 49 49 48 47 47 45 44 44 44 43 42 41 41 40 40 39 39 37 36 35 34 33 32 31 30 29 27 26 26 25 25 24 22 21 21 22 20 19 18 16 14 14 14 14 13 11 11 12 12 12 12 11 11 11 11 10 9 8 8 7 7 6 6 6 6 6 6 6 6
28 30 32 34 35 36 38 40 42 45 45 44 44 45 47 48 49 50 49 49 48 47 46 46 45 44 43 43 43 41 41 40 40 39 37 37 36 34 33 32 31 29 28 27 27 27 27 26 23 22 22 22 21 20 19 17 16 16 16 16 15 12 12 13 14 14 14 13 13 13 12 11 11 11 10 9 9 8 8 8 7 7 6 6 6
29 31 33 34 34 35 38 40 41 44 46 46 46 45 46 47 48 49 49 50 50 49 48 47 46 46 44 44 44 42 42 42 40 38 37 36 36 35 33 33 32 31 30 29 29 29 28 28 26 24 24 23 22 21 20 19 18 18 17 17 15 13 12 14 15 15 15 15 15 14 13 13 14 13 12 12 12 11 10 10 9 9 8 7 7
29 31 31 32 34 36 38 40 42 45 48 47 46 45 45 46 47 48 49 50 50 50 49 48 48 47 46 45 45 43 43 42 39 38 37 36 35 34 33 33 32 32 32 31 30 30 30 30 29 28 27 26 24 23 22 21 20 20 19 18 17 16 13 14 17 16 16 16 16 16 15 15 15 14 13 13 14 13 12 12 11 11 11 10 9
26 28 29 30 34 37 39 40 43 46 50 49 47 46 45 45 45 47 49 49 49 49 49 49 49 49 48 47 46 45 45 43 40 39 38 37 36 35 33 33 32 32 32 32 32 32 32 32 31 31 30 29 27 25 24 23 22 22 21 20 20 19 16 15 17 18 17 18 18 18 18 17 16 15 14 14 15 14 13 13 13 13 13 13 12
25 27 29 32 34 36 38 39 40 42 45 46 46 47 47 45 45 46 47 48 48 48 48 49 49 49 48 48 48 48 46 44 42 40 40 39 38 37 35 34 32 32 32 32 33 33 33 33 33 33 32 32 30 27 26 25 24 24 23 21 21 22 20 18 18 19 19 19 19 20 20 19 18 17 16 16 17 16 14 14 14 14 14 14 14
27 27 29 32 33 34 35 35 35 35 37 38 41 44 45 45 46 46 45 46 47 47 48 49 49 49 49 49 49 48 46 45 43 42 42 40 39 38 37 35 34 33 32 31 32 33 34 34 34 34 34 33 32 29 28 27 26 25 25 23 23 24 22 21 21 21 21 21 20 21 22 21 20 20 19 19 19 18 16 16 16 15 15 15 15
26 26 26 27 28 29 30 30 31 32 34 36 39 41 42 44 46 46 46 46 46 47 48 48 49 49 49 49 48 48 46 45 44 44 43 41 40 39 38 37 36 35 33 32 32 33 34 34 34 35 35 34 33 31 29 29 28 27 26 25 25 25 23 23 24 24 23 23 22 22 23 23 22 22 21 21 20 20 19 18 17 17 16 16 16
17 18 19 20 21 24 26 28 31 33 35 36 37 40 43 46 46 45 47 47 46 47 48 48 49 49 48 48 48 48 47 46 46 45 44 42 41 40 39 38 37 36 35 34 33 33 34 35 35 35 36 35 34 33 31 30 30 29 28 27 27 26 24 24 26 25 24 24 24 24 24 24 24 23 23 22 21 21 21 20 19 19 18 17 17
13 14 16 17 18 21 25 29 33 35 36 35 36 39 43 46 46 47 49 49 48 47 47 48 48 48 48 48 48 48 48 47 47 47 46 44 42 42 40 39 38 38 38 37 35 34 34 35 36 37 37 37 36 34 33 32 32 31 29 29 29 27 26 26 26 26 25 25 25 25 25 25 25 24 23 23 23 22 22 21 20 20 19 18 18
13 15 16 18 19 22 26 30 33 35 36 36 37 38 39 43 47 49 50 49 48 48 48 48 47 46 47 48 47 47 47 47 47 47 46 45 44 44 43 41 40 40 40 39 37 36 36 36 37 37 38 38 38 36 35 34 34 33 31 30 30 29 28 27 27 27 26 26 26 26 26 26 26 25 24 23 23 23 23 22 22 20 20 19 19
11 13 15 17 20 22 25 28 32 34 35 37 39 38 37 39 43 46 45 46 48 48 49 49 48 47 48 48 47 46 46 45 45 45 45 44 44 44 44 43 41 40 41 41 40 38 38 38 37 37 38 38 39 38 37 36 35 34 33 32 32 31 29 28 28 28 28 27 28 28 27 27 27 27 25 24 24 23 22 22 22 21 20 20 20
9 10 12 14 17 20 23 25 29 32 33 35 38 39 37 37 40 41 40 41 46 49 49 50 50 49 50 49 48 47 45 45 44 44 43 43 42 43 44 43 41 40 41 41 41 40 40 39 38 38 38 38 38 39 38 37 36 36 35 34 34 33 31 30 30 29 29 29 29 29 28 28 29 29 27 26 25 23 22 22 22 22 21 21 20
6 7 9 11 14 18 21 24 27 29 31 33 35 37 39 40 41 40 38 38 42 47 49 50 50 50 51 50 49 47 46 46 46 45 44 44 43 43 43 43 42 41 40 41 41 41 40 39 39 39 39 38 38 39 39 39 39 39 38 37 36 35 33 32 32 31 31 30 30 30 29 30 30 30 28 27 26 25 23 23 22 21 21 21 21
6 6 5 7 10 14 17 21 25 27 30 32 34 35 39 42 43 43 40 38 41 46 49 50 51 51 51 50 49 47 47 47 47 47 46 45 45 45 44 44 44 43 41 41 41 41 40 40 40 40 40 40 40 41 41 41 40 41 41 39 38 37 35 34 34 33 33 32 31 31 30 31 31 31 29 27 27 25 24 24 23 22 21 21 22
5 5 6 9 10 11 12 15 20 25 29 32 34 36 38 41 43 44 43 41 41 45 49 50 51 51 51 51 49 47 46 47 48 48 48 46 46 46 46 46 45 44 43 42 41 41 41 41 41 41 41 41 42 42 43 42 42 42 41 41 40 39 37 36 36 35 35 34 33 32 31 31 32 31 29 27 26 26 25 25 24 23 22 22 22
10 6 8 15 16 14 13 12 15 20 25 30 34 36 38 38 40 43 46 44 42 44 48 50 50 51 51 51 49 47 47 47 47 48 47 47 46 46 46 46 46 45 44 43 42 42 42 42 43 43 43 43 43 44 44 43 43 42 41 41 41 40 38 37 37 38 37 36 35 33 33 32 32 31 29 28 27 27 27 26 26 25 24 24 24
18 15 17 22 22 18 18 18 17 17 20 26 31 35 37 38 40 42 42 41 42 44 48 49 49 49 50 49 48 47 47 46 47 47 47 46 46 46 47 47 47 46 45 44 44 43 42 43 44 45 45 45 45 44 44 44 43 42 41 40 40 40 39 38 38 38 38 37 36 35 34 34 33 32 30 29 28 28 28 27 26 26 26 25 25
23 21 24 27 26 22 21 22 21 18 18 21 25 31 35 37 38 39 38 38 42 46 48 48 47 48 47 47 46 46 46 46 47 46 46 46 46 46 47 47 47 46 45 45 46 45 44 44 45 46 47 46 46 45 44 43 43 42 41 39 39 39 39 38 39 39 39 38 37 36 36 36 35 33 30 29 29 29 28 27 27 27 27 25 25
23 22 26 29 29 27 24 23 23 20 17 19 22 26 31 34 36 38 39 40 42 45 47 47 47 46 45 44 44 45 45 46 46 46 46 47 46 46 47 47 47 47 47 47 47 47 46 45 46 47 47 47 47 47 45 44 43 42 41 39 38 38 37 38 39 40 39 39 38 38 37 37 37 35 31 30 30 29 28 27 27 27 27 26 25
22 24 29 32 31 28 25 24 24 20 17 19 21 23 27 32 34 36 39 41 42 43 45 45 45 45 43 43 43 43 44 45 46 47 47 47 47 46 47 47 48 48 48 47 48 48 47 46 46 47 48 48 48 48 47 45 43 43 42 39 38 38 39 40 41 41 41 40 39 38 38 38 38 36 33 31 30 29 28 28 28 28 28 27 26
20 23 28 31 30 27 25 24 23 20 17 19 21 22 25 29 32 34 37 39 40 42 42 43 43 43 43 43 43 43 43 44 46 46 47 47 46 46 46 46 46 47 47 47 48 48 48 48 47 44 45 49 49 48 49 48 45 44 43 40 39 40 41 42 43 42 43 41 38 37 37 39 39 36 34 32 29 28 27 25 25 26 25 25 24
23 25 27 28 28 26 24 23 22 20 18 18 20 21 23 28 31 33 35 38 40 40 41 42 42 42 42 43 44 44 44 44 45 45 46 45 44 44 44 44 45 46 47 48 48 48 48 48 47 44 45 49 49 48 49 49 47 46 45 43 42 41 41 43 44 44 44 43 42 40 38 39 39 38 36 33 30 29 26 23 22 21 19 19 18
26 26 24 25 25 23 22 21 19 18 17 18 19 19 22 27 30 32 33 36 39 40 40 42 42 42 42 42 42 42 41 41 42 42 42 42 42 43 44 44 45 45 47 47 47 47 47 47 48 47 47 48 47 46 47 49 49 48 46 45 44 42 42 44 45 45 45 43 42 42 40 39 39 39 37 34 32 30 28 25 23 20 18 18 16
23 22 20 21 22 19 18 17 16 16 16 16 16 17 20 25 28 29 29 31 35 37 38 40 40 40 40 39 38 38 38 40 40 40 41 42 41 42 42 43 44 44 45 46 46 47 47 47 47 47 46 46 45 44 46 48 49 48 46 46 45 43 44 45 45 47 46 39 36 38 40 40 39 38 37 35 33 32 30 29 25 22 21 19 17
17 18 17 18 17 14 14 15 15 15 14 14 14 15 19 21 22 25 27 28 31 33 34 34 35 36 36 35 35 36 38 39 39 39 40 40 40 42 42 42 43 43 43 44 45 45 45 45 45 43 43 45 46 45 45 47 49 48 46 46 45 44 45 46 46 48 47 38 31 32 38 40 40 38 38 36 33 32 32 31 28 26 24 20 17
15 15 13 12 11 12 13 13 13 13 13 14 14 15 16 17 17 20 23 25 27 29 30 30 31 33 33 33 35 37 37 38 38 39 39 39 40 42 43 43 42 41 41 43 43 41 41 41 40 39 39 41 42 42 43 45 47 48 47 47 46 46 47 47 47 49 48 43 36 35 39 42 41 39 39 37 34 33 33 32 32 31 26 20 19
11 10 9 8 9 11 11 11 12 12 12 12 13 14 15 15 14 15 17 20 22 25 27 28 29 31 32 33 35 36 36 37 37 38 38 39 40 41 41 41 41 40 40 39 36 35 35 36 35 34 34 35 35 35 37 40 43 46 48 48 48 48 47 46 47 49 49 47 44 42 44 45 42 41 41 38 35 34 34 34 35 33 27 23 22
3 2 3 4 6 9 11 12 13 13 12 12 12 13 14 14 13 14 16 18 20 22 23 24 25 27 29 31 31 33 34 34 34 34 35 36 37 38 39 40 39 37 35 30 26 26 28 30 31 31 32 33 33 33 35 40 43 45 47 49 48 48 48 45 45 48 50 49 47 46 46 47 43 41 41 39 36 36 36 35 35 32 28 26 23
1 1 1 1 1 4 8 12 14 14 14 14 14 15 16 16 15 16 17 18 19 20 20 19 20 22 23 25 27 28 29 29 29 31 32 33 35 35 36 35 33 32 30 26 24 25 26 27 30 32 31 31 31 30 33 38 43 44 47 50 49 47 47 47 46 47 48 48 48 48 48 47 44 41 40 38 37 38 37 36 35 33 30 27 24
2 2 3 3 3 4 5 8 12 15 16 16 16 16 16 16 16 15 15 16 16 16 16 16 16 17 18 19 21 23 24 24 25 26 28 30 31 29 28 26 23 24 26 25 26 28 27 27 29 30 29 29 28 28 30 35 40 42 44 48 50 49 48 48 49 49 44 40 42 47 47 44 42 40 38 37 38 38 38 37 37 34 31 28 25
3 3 4 4 4 5 6 7 10 13 15 16 16 15 15 14 14 14 14 14 13 13 14 14 14 14 15 16 16 17 18 19 20 21 22 22 22 22 22 21 20 21 24 25 25 27 28 28 30 30 29 29 29 30 31 34 38 41 41 42 46 49 49 48 49 50 45 37 36 41 42 40 39 37 36 38 40 39 38 38 37 35 32 29 26
4 4 4 5 4 5 6 8 10 11 13 14 14 14 13 12 12 11 12 12 10 9 10 10 10 10 11 12 13 13 14 14 15 16 16 16 16 17 19 21 21 22 24 26 26 26 26 27 29 30 30 30 31 32 33 36 39 42 44 44 43 44 46 47 48 50 48 42 38 38 38 37 35 34 35 38 39 39 39 40 38 37 35 30 25
3 4 5 5 5 5 6 7 8 9 11 13 13 13 12 11 11 10 9 9 8 7 7 8 8 9 9 10 10 11 12 12 12 12 13 13 15 17 18 20 20 21 24 26 26 26 27 27 28 29 30 31 31 32 34 38 41 44 46 47 46 44 44 48 50 51 50 48 43 40 37 34 33 34 36 39 39 41 42 42 41 40 36 29 25
4 5 5 6 6 5 6 7 7 8 9 10 12 12 11 10 10 9 8 8 8 7 7 7 9 11 12 12 11 9 8 8 9 9 11 16 19 19 20 21 21 22 24 25 27 28 29 30 30 31 33 34 34 35 36 36 39 44 48 49 48 47 47 48 50 52 53 52 49 46 43 39 37 37 40 43 44 44 45 44 43 42 35 26 25
6 7 7 7 7 7 7 7 7 7 8 9 10 11 10 10 10 9 8 8 8 7 6 6 6 7 8 9 9 8 6 7 9 11 13 18 20 20 22 23 24 25 26 27 29 31 33 34 35 36 36 37 39 41 41 38 38 43 48 51 50 50 49 49 50 53 56 53 50 50 50 48 45 43 44 47 48 47 47 46 44 41 34 28 26
9 10 10 10 9 9 10 9 9 8 8 9 10 10 10 11 10 10 9 9 9 9 8 7 6 6 6 5 4 4 4 5 7 8 9 11 12 13 17 20 22 23 24 26 28 31 33 35 38 40 43 45 47 49 50 48 47 47 50 52 53 54 53 49 49 54 60 57 52 53 54 53 51 48 50 52 51 50 49 47 43 39 36 33 31
Wind_Direction
188 188 189 190 191 190 191 192 195 197 200 206 210 212 210 209 210 209 205 199 196 196 197 200 201 201 203 203 206 209 211 213 215 217 215 216 220 220 219 218 221 222 222 223 223 225 223 226 230 233 241 251 256 265 277 293 316 329 329 334 340 338 344 18 155 310 311 289 278 253 239 230 234 222 197 225 178 141 131 121 115 107 88 75 67
186 187 189 190 190 190 191 193 196 198 201 207 212 213 211 212 213 212 210 208 205 204 204 206 207 207 207 206 207 211 217 219 218 219 218 218 221 220 218 220 221 224 224 222 223 225 226 228 232 235 242 249 258 265 276 294 315 322 320 331 331 309 279 227 232 267 348 274 174 169 193 199 221 222 206 211 187 159 144 132 118 105 99 85 70
187 187 188 190 190 190 192 196 199 201 205 209 212 214 214 212 213 215 215 214 213 212 212 213 213 213 213 212 210 210 220 224 221 221 220 221 224 221 219 222 223 225 226 224 223 227 230 232 235 239 244 248 256 266 277 292 311 316 312 320 316 311 265 232 233 231 161 133 150 159 168 174 190 218 214 203 190 177 157 152 135 117 126 103 75
189 188 188 189 190 191 193 197 200 199 203 209 213 215 216 214 214 215 217 217 218 219 219 218 217 218 218 219 217 212 218 225 224 225 223 223 226 225 222 224 226 226 227 226 224 228 232 235 239 241 244 247 250 261 275 290 303 301 294 292 291 304 258 241 236 227 191 159 152 136 143 171 181 188 198 192 194 190 174 176 159 142 154 100 81
189 190 190 190 190 192 195 199 201 201 203 206 211 214 216 216 215 215 217 218 219 221 221 220 219 219 219 220 222 219 219 225 226 226 225 223 225 226 225 225 226 227 227 227 227 229 232 236 241 242 245 249 250 256 269 283 289 279 274 281 271 214 192 232 249 243 206 180 170 158 152 165 150 152 175 181 195 195 185 197 182 163 172 116 106
192 192 192 191 192 192 195 200 203 205 207 208 211 214 216 217 216 216 217 218 219 221 222 221 221 220 219 218 220 220 220 223 225 225 224 224 223 226 229 227 226 228 228 228 229 231 233 235 240 244 245 246 249 251 259 272 273 259 254 264 267 229 195 209 230 234 220 192 178 184 178 119 105 143 175 180 190 200 202 212 201 181 177 131 122
195 196 195 194 193 192 195 202 205 206 210 213 213 216 218 218 217 216 216 217 219 220 220 221 222 222 220 219 220 221 222 223 225 225 224 226 224 226 231 231 230 230 231 232 232 233 234 237 241 245 243 242 247 249 252 261 255 244 243 249 254 231 202 200 208 219 225 201 188 198 205 189 173 175 182 177 186 203 214 225 219 198 186 149 146
197 196 197 196 196 195 198 206 209 207 209 214 214 216 218 218 218 216 216 216 217 217 219 220 222 221 221 221 223 224 225 226 228 227 226 227 227 227 230 234 232 231 234 235 235 235 236 239 240 243 242 240 243 245 247 250 244 238 238 247 247 224 208 200 194 204 209 199 199 200 210 221 210 202 221 225 232 231 209 210 214 196 194 208 191
200 198 198 198 198 199 201 208 211 207 208 215 217 217 218 219 218 217 215 216 216 218 220 221 222 220 221 223 224 226 227 228 231 231 230 229 229 228 229 232 232 231 233 236 237 237 237 239 240 240 241 240 241 241 242 242 239 239 238 246 246 217 215 217 199 198 192 190 202 194 198 215 211 225 244 247 261 258 185 174 185 191 202 217 212
204 202 200 199 200 201 202 205 209 209 210 215 217 216 219 220 219 217 217 217 218 219 220 222 223 221 222 224 225 227 228 228 231 233 233 231 230 229 228 230 231 230 232 235 237 236 236 238 239 240 239 238 238 235 238 239 237 240 236 241 239 210 218 236 216 202 188 184 197 193 189 195 199 214 226 231 231 223 198 173 178 198 209 202 198
206 205 202 201 201 200 199 200 205 209 209 212 216 218 221 223 221 220 219 219 219 220 221 222 223 222 223 225 226 228 229 229 230 232 234 232 231 230 229 230 230 230 231 234 236 236 236 238 237 239 239 237 238 236 238 239 238 240 233 237 236 210 218 238 222 210 199 192 196 197 195 192 198 207 209 217 213 200 217 214 191 208 222 196 193
205 205 203 200 198 197 197 199 201 205 207 210 215 218 221 224 224 222 221 220 220 221 221 221 222 223 224 226 228 229 230 231 231 232 234 235 233 231 231 231 231 231 231 233 235 236 237 238 236 237 237 237 237 236 237 237 235 235 230 235 234 212 222 237 222 214 212 204 200 203 208 204 207 213 209 215 215 204 213 230 231 228 235 217 217
204 204 202 199 198 196 196 197 198 203 209 212 214 216 220 224 225 224 222 221 220 220 220 221 223 225 225 226 229 230 231 232 232 232 234 236 236 234 233 232 231 231 231 232 234 236 237 238 237 237 237 237 237 238 242 241 233 230 232 237 234 219 227 238 225 214 214 210 200 203 213 214 213 216 215 212 213 214 214 226 239 226 222 222 221
203 203 203 201 199 198 198 199 202 208 213 214 214 215 219 223 225 225 223 221 221 221 222 223 224 225 225 226 228 230 231 232 233 233 234 235 237 236 236 235 233 232 232 233 234 235 238 239 239 240 239 240 242 243 247 246 235 231 235 237 233 224 226 233 227 214 212 212 203 200 205 211 215 213 214 212 208 218 221 222 231 231 229 224 218
204 203 203 203 202 201 200 201 206 213 215 215 215 216 218 222 224 225 224 222 222 223 223 224 225 225 225 226 228 229 230 232 233 234 234 235 236 237 237 237 237 236 235 235 236 236 238 240 240 240 242 244 246 247 250 249 239 232 232 233 232 227 222 228 229 219 214 213 210 207 202 204 214 211 210 215 211 216 223 220 223 225 228 223 219
204 205 205 204 203 202 202 204 208 214 216 215 216 217 219 222 224 225 225 224 223 223 224 225 227 228 226 227 228 228 230 232 232 233 234 235 237 237 237 238 239 239 237 236 236 236 238 240 240 240 242 244 246 247 250 253 246 236 232 232 230 225 220 227 233 226 218 214 213 216 210 204 213 215 211 214 215 215 215 215 216 218 225 228 223
205 206 206 204 202 202 205 207 208 212 217 217 218 219 220 221 224 225 225 225 225 224 224 225 227 229 228 228 229 228 229 231 231 232 233 235 237 237 237 238 238 239 239 237 237 237 237 239 240 240 241 242 244 247 249 251 251 243 236 235 232 226 221 229 235 232 225 218 215 219 217 210 216 224 221 219 222 225 221 218 215 214 220 228 232
207 207 206 203 201 203 207 209 211 216 220 220 220 221 221 221 223 225 225 225 225 225 225 225 227 229 229 229 229 228 229 231 231 232 234 234 235 236 236 237 237 237 238 238 237 236 237 238 239 240 241 241 242 245 247 249 250 247 238 235 236 230 223 227 234 233 229 224 219 221 221 217 221 229 229 225 230 233 230 227 222 215 215 219 227
208 207 205 202 202 205 209 211 213 218 223 223 221 221 221 222 223 225 226 226 225 226 226 226 227 229 230 229 229 229 230 232 232 233 235 234 233 234 235 235 236 236 237 236 235 236 236 237 238 238 240 241 240 242 246 247 247 247 240 234 235 234 226 226 232 233 231 228 225 225 225 222 223 228 228 227 233 236 232 230 228 222 221 220 220
208 206 205 204 205 207 211 213 211 213 218 221 220 221 222 223 223 224 227 228 228 228 227 227 227 228 229 229 230 230 231 233 233 233 235 234 234 234 235 234 235 236 236 236 234 234 235 236 236 236 237 239 239 238 242 244 244 244 241 234 235 237 232 228 231 233 234 233 230 228 228 226 225 227 228 228 234 238 234 230 230 229 230 229 224
207 207 206 206 206 207 210 213 210 207 210 213 215 220 221 221 224 226 226 227 228 228 228 229 229 228 229 229 230 231 231 232 233 233 234 235 235 235 236 236 236 236 236 236 234 232 233 234 235 235 235 236 237 236 238 242 243 242 240 235 235 238 236 232 233 234 234 235 234 232 232 229 226 227 229 230 233 237 236 232 231 231 232 234 233
208 208 208 207 207 207 207 209 207 204 205 208 212 216 217 220 223 225 226 227 228 228 228 229 230 230 230 230 231 232 231 231 231 232 233 235 236 236 236 236 237 237 236 236 235 233 232 232 233 234 234 234 235 234 235 239 241 241 240 237 236 237 235 232 234 234 234 235 235 234 234 233 230 228 229 230 232 234 235 234 233 232 231 232 237
209 209 209 208 206 207 207 206 206 206 205 206 207 211 217 221 222 223 225 227 227 228 229 229 230 230 231 231 232 232 232 231 230 231 232 233 235 236 236 236 236 236 236 235 234 233 232 231 231 233 234 235 235 234 234 236 239 239 239 238 237 237 236 233 234 235 235 235 236 236 236 236 234 231 230 231 231 233 235 235 235 234 232 231 235
208 207 205 206 206 205 207 206 205 207 207 206 205 207 214 219 220 222 226 228 228 228 229 231 231 231 231 232 232 232 233 232 231 232 232 232 234 236 236 236 235 236 237 236 234 233 233 232 231 232 234 235 235 235 234 235 237 237 238 239 238 238 237 235 235 236 236 236 237 237 238 238 238 236 234 233 234 236 237 238 237 237 238 235 232
208 205 201 202 203 205 209 209 208 209 209 209 209 207 209 214 218 222 225 226 227 226 228 231 233 233 233 233 233 232 232 233 232 232 232 232 233 235 237 237 236 236 237 238 235 233 234 234 233 233 234 235 236 236 234 235 237 237 236 238 239 239 237 236 236 236 236 237 237 238 239 240 241 240 238 237 237 239 240 240 240 240 242 241 235
207 201 202 204 205 212 218 218 215 212 210 214 216 212 208 210 216 219 219 221 224 225 226 230 233 234 234 235 235 234 233 233 232 232 232 232 232 234 236 237 237 236 237 238 237 235 234 234 234 234 235 236 237 237 236 236 237 238 236 237 239 239 238 237 237 236 236 237 238 238 239 240 242 242 241 240 240 241 242 242 243 243 243 244 241
204 199 206 213 215 222 229 229 225 218 213 216 220 218 213 210 213 215 212 214 221 224 226 229 232 234 235 236 236 236 235 235 235 234 233 233 233 234 235 237 237 237 236 237 238 237 236 236 236 236 236 237 238 239 238 237 237 238 237 237 238 239 239 237 237 237 236 237 238 238 239 240 241 242 242 242 242 243 243 243 244 246 244 244 242
214 214 215 226 232 235 236 236 233 225 217 216 219 221 221 218 218 216 209 209 217 223 226 228 231 233 235 238 238 238 237 237 237 237 236 235 236 236 236 237 238 238 237 237 238 238 237 237 237 237 237 238 239 240 240 238 237 238 238 237 237 238 239 238 238 238 237 238 238 239 239 241 242 243 242 242 243 243 243 243 244 245 245 244 242
220 238 244 252 252 250 246 243 239 232 225 221 218 219 223 225 224 221 214 209 214 222 226 228 230 234 236 238 240 239 239 238 238 238 238 237 237 238 238 238 239 240 239 239 239 239 239 239 238 238 238 238 239 240 241 239 238 238 238 238 237 237 238 239 239 239 238 238 239 240 240 241 243 244 242 241 243 243 243 243 244 244 244 245 243
243 255 291 301 291 277 262 249 244 239 233 228 223 221 223 225 225 225 221 214 213 221 226 228 231 235 236 237 239 240 240 239 239 239 239 239 239 239 240 240 240 241 241 240 240 240 240 240 239 238 238 238 238 239 240 240 239 239 238 238 238 238 238 239 240 240 240 239 240 240 241 242 243 244 243 240 240 242 242 241 243 243 242 242 242
288 276 290 301 298 285 270 260 256 250 240 234 231 229 227 224 223 227 228 221 216 220 226 229 232 234 234 236 238 240 240 240 240 240 240 240 240 240 241 241 242 242 242 242 242 241 241 241 241 240 239 238 238 238 240 240 240 240 240 239 240 239 239 239 241 242 242 241 241 241 241 243 243 243 242 240 238 239 239 238 240 243 243 241 240
291 286 286 292 290 283 277 275 273 264 250 241 236 232 230 227 225 227 227 222 218 221 228 232 233 233 234 236 238 239 240 241 241 241 241 241 241 241 242 242 243 243 243 243 243 242 241 241 242 242 241 240 239 239 239 241 241 241 241 241 241 242 241 240 241 243 244 243 242 242 241 242 243 242 240 240 239 239 239 238 240 243 245 244 241
284 283 282 284 283 280 280 279 276 270 260 251 241 234 233 232 228 223 220 219 221 226 230 233 233 234 236 238 239 239 240 241 242 242 242 242 242 242 243 243 244 244 244 244 244 244 242 241 242 243 243 242 242 241 240 240 242 242 242 241 242 243 242 241 242 244 245 245 244 242 242 242 243 242 240 240 241 240 239 239 240 243 245 244 243
277 277 278 280 279 277 278 277 276 276 267 255 245 238 235 234 230 225 222 222 225 228 231 233 235 236 238 239 240 241 241 242 242 242 242 242 243 244 244 244 245 245 245 245 246 245 244 243 242 243 244 244 244 244 242 240 241 242 242 241 241 242 243 242 242 243 245 247 245 243 242 242 243 242 239 239 241 241 239 238 239 241 242 243 244
274 274 274 275 274 273 274 274 277 280 270 255 247 237 231 230 230 228 226 226 226 228 230 233 235 237 238 239 240 241 241 241 242 242 242 242 244 245 245 245 245 246 247 247 247 247 246 245 244 245 246 246 246 246 244 242 240 241 241 240 239 240 241 241 242 242 244 245 244 242 242 242 243 242 239 236 238 242 242 238 238 241 242 243 246
266 265 266 268 268 269 270 272 277 279 270 255 245 233 223 224 228 229 228 227 228 228 230 231 234 235 236 237 238 239 239 239 239 240 241 242 244 245 246 246 245 246 247 248 248 249 248 247 247 246 245 246 246 246 245 243 241 240 240 239 237 236 237 239 239 239 241 241 240 239 238 239 240 241 238 234 234 239 241 238 238 241 241 241 245
259 261 263 265 266 266 268 272 275 273 264 250 238 226 218 218 224 228 228 227 228 229 230 231 232 234 236 236 237 238 239 239 239 240 242 244 245 247 247 247 246 246 246 247 249 249 249 249 248 245 245 246 246 244 243 243 242 241 239 238 236 234 234 236 237 237 238 239 239 237 234 234 236 236 235 232 230 233 235 233 231 233 233 234 236
260 262 264 266 266 266 268 271 269 263 255 241 230 221 215 215 220 225 227 227 228 229 230 231 232 234 236 237 238 240 241 241 242 243 245 246 247 248 248 248 248 247 247 247 248 249 250 250 248 247 247 248 245 244 246 245 244 243 241 239 237 234 233 235 236 236 237 237 237 236 233 231 232 234 233 229 227 228 231 230 228 226 226 229 226
258 261 262 264 266 264 262 258 252 246 238 227 218 212 211 214 220 225 226 226 228 229 230 232 234 235 237 238 240 242 242 243 243 245 245 246 247 248 249 250 250 250 250 249 248 249 250 250 250 249 248 247 246 247 248 248 248 247 245 242 239 235 234 235 235 236 236 234 233 234 234 231 231 233 233 229 225 225 226 228 227 225 225 225 218
255 257 255 255 255 247 238 234 232 229 218 207 201 200 205 214 221 225 225 225 227 229 230 233 235 237 239 241 242 242 243 243 244 245 246 248 248 249 249 249 250 251 250 249 249 249 249 249 249 248 249 250 250 248 247 250 251 250 248 246 242 238 236 235 235 235 234 231 228 230 233 232 230 232 234 230 225 224 225 226 225 225 227 222 211
247 245 238 237 235 225 219 219 218 213 203 193 188 191 200 210 217 223 225 226 227 230 232 234 236 238 240 242 243 244 245 245 246 247 248 249 248 247 247 248 249 249 249 250 249 247 246 247 247 246 247 249 250 249 248 251 251 250 247 245 242 242 240 237 236 235 232 229 227 228 231 232 229 230 232 229 224 223 223 224 225 227 228 218 202
246 238 218 211 217 211 206 206 204 199 193 187 183 185 192 200 207 215 221 223 226 230 232 234 236 238 239 240 242 243 244 245 246 248 249 249 249 248 248 249 250 249 250 251 249 246 246 247 246 246 245 244 246 247 248 249 249 248 247 245 243 244 243 240 236 235 232 229 229 230 233 233 229 227 230 227 222 221 221 222 225 227 223 210 199
243 247 206 207 210 196 189 190 190 186 182 176 176 179 183 187 191 195 203 212 221 229 232 234 237 238 239 239 240 242 244 246 248 249 250 251 251 250 250 251 250 249 249 248 246 245 247 247 244 244 245 245 245 244 244 248 251 249 247 248 248 247 245 241 237 237 236 234 231 230 233 234 230 227 228 225 219 218 219 220 223 222 216 207 201
158 60 55 66 117 161 171 177 178 176 172 166 170 178 180 183 188 192 198 207 216 224 228 231 233 235 237 238 239 242 246 250 251 251 251 252 252 251 250 250 250 249 247 244 243 244 246 246 245 244 245 245 244 242 242 248 252 251 249 250 250 248 246 243 240 239 238 237 235 234 234 234 231 228 226 222 216 216 218 219 218 216 211 208 203
135 115 95 87 89 101 120 146 161 169 171 167 170 178 181 183 187 191 197 205 210 216 219 221 225 227 230 233 236 240 244 248 249 250 251 252 253 251 248 246 246 247 246 245 246 246 247 248 248 248 247 245 244 244 245 248 252 253 251 250 249 249 248 245 241 240 237 234 235 237 235 233 231 227 223 217 212 213 215 215 214 212 208 206 201
149 130 113 104 106 105 101 113 135 154 165 166 168 174 177 180 180 183 190 195 199 205 208 210 213 215 218 222 225 230 236 241 243 244 246 249 249 246 244 243 243 246 247 247 248 248 247 249 251 252 252 251 248 248 249 250 251 251 251 251 251 250 249 246 243 242 237 230 231 233 233 231 228 223 217 212 209 209 211 210 209 208 204 201 199
153 133 122 119 116 110 103 103 112 129 145 153 157 163 168 169 167 170 177 181 182 188 194 198 201 205 209 212 212 215 220 224 228 230 232 239 243 242 243 245 245 247 249 250 253 253 252 252 253 254 255 256 254 253 252 251 251 252 253 252 249 246 246 243 241 240 235 228 226 229 230 229 223 214 209 209 208 207 206 204 203 202 201 198 198
153 129 126 129 126 118 109 104 103 113 128 138 144 148 153 155 152 152 157 161 160 157 158 166 176 184 190 194 198 205 209 210 214 220 226 234 240 241 242 245 247 249 250 251 252 254 254 255 256 257 258 257 256 257 257 254 253 256 257 253 248 245 242 239 236 236 232 227 223 223 222 219 212 205 203 204 204 203 202 201 200 198 197 196 195
140 128 126 125 122 118 112 104 101 107 118 129 136 139 141 144 147 148 148 151 154 152 149 161 178 187 190 191 192 196 198 200 204 210 218 226 229 230 234 238 239 242 246 249 251 252 254 256 256 257 258 259 258 259 260 259 258 260 259 257 255 252 248 245 241 235 228 223 219 217 216 212 206 203 201 199 198 199 198 198 197 195 194 193 192
119 113 113 114 112 110 106 101 99 101 106 113 121 127 132 136 143 148 151 156 160 156 152 156 169 182 191 196 201 204 204 204 204 206 216 225 229 232 237 240 242 243 245 250 254 257 259 261 261 261 260 260 261 262 262 261 259 259 260 261 262 260 258 258 253 237 224 219 218 216 214 212 209 205 200 197 195 194 193 194 194 193 191 191 190
111 108 109 109 107 105 101 97 94 93 94 96 100 103 111 118 123 125 129 138 145 145 146 149 152 162 172 171 174 191 206 217 224 227 233 239 241 242 245 250 254 255 257 259 262 265 267 269 270 270 268 266 264 265 265 263 259 259 260 262 264 263 260 261 256 238 222 216 218 217 214 213 211 205 199 195 193 192 193 193 191 189 189 190 191